Weather History for KSUE - June, 2014

Change the Weather History Date:

Sunday, June 15, 2014

  Actual Average Record
Temperature  
Mean Temperature 60 °F -  
Max Temperature 68 °F 73 °F 95 °F (1987)
Min Temperature 53 °F 53 °F 35 °F (1908)
Degree Days  
Heating Degree Days 4    
Growing Degree Days 10 (Base 50)    
Moisture  
Dew Point 48 °F    
Average Humidity 66    
Maximum Humidity 88    
Minimum Humidity 52    
Precipitation  
Precipitation 0.16 in - - ()
Sea Level Pressure  
Sea Level Pressure 29.90 in    
Wind  
Wind Speed 12 mph (SSE)    
Max Wind Speed 25 mph    
Max Gust Speed 38 mph    
Visibility 10 miles    
Events Thunderstorm    
Averages and records for this station are not official NWS values.
T = Trace of Precipitation, MM = Missing Value Source: NWS Daily Summary

Daily Weather History Graph

Daily Weather History Graph

Search for Another Location

Airport or City:

Trip Planner

Search our weather history database for the weather conditions in past years. The results will help you decide how hot, cold, wet, or windy it might be!

Date:

Astronomy

Jun. 15, 2014 Rise Set
Actual Time 5:02 AM CDT 8:37 PM CDT
Civil Twilight 4:25 AM CDT 9:14 PM CDT
Nautical Twilight 3:36 AM CDT 10:04 PM CDT
Astronomical Twilight 2:31 AM CDT 11:08 PM CDT
Moon 10:39 PM CDT (6/15) 8:02 AM CDT (6/15)
Length of Visible Light 16h 49m
Length of Day
15h 34m
Waning Gibbous, 91% of the Moon is Illuminated
Jun 15
Waning Gibbous
Jun 19
Last Quarter
Jun 27
New
Jul 5
First Quarter
Jul 12
Full

Hourly Weather History & Observations

Time (CDT) Temp. Dew Point Humidity Pressure Visibility Wind Dir Wind Speed Gust Speed Precip Events Conditions
12:15 AM 53.6 °F 42.8 °F 67% 30.02 in 10.0 mi East 9.2 mph - N/A   Clear
12:35 AM 53.6 °F 42.8 °F 67% 30.01 in 10.0 mi ESE 8.1 mph - N/A   Clear
12:55 AM 55.4 °F 42.8 °F 63% 30.00 in 10.0 mi East 10.4 mph 16.1 mph N/A   Clear
1:15 AM 55.4 °F 42.8 °F 63% 30.01 in 10.0 mi East 8.1 mph - N/A   Clear
1:35 AM 57.2 °F 41.0 °F 55% 30.01 in 10.0 mi East 9.2 mph - N/A   Clear
1:55 AM 55.4 °F 42.8 °F 63% 30.01 in 10.0 mi ESE 8.1 mph - N/A   Scattered Clouds
2:15 AM 55.4 °F 41.0 °F 58% 30.01 in 10.0 mi ESE 8.1 mph - N/A   Overcast
2:35 AM 55.4 °F 42.8 °F 63% 30.01 in 10.0 mi ESE 6.9 mph - N/A   Overcast
2:55 AM 55.4 °F 42.8 °F 63% 30.01 in 10.0 mi ESE 5.8 mph - N/A   Partly Cloudy
3:15 AM 55.4 °F 42.8 °F 63% 30.01 in 10.0 mi ESE 8.1 mph - N/A   Clear
3:35 AM 55.4 °F 44.6 °F 67% 30.00 in 10.0 mi SE 10.4 mph - N/A   Clear
3:55 AM 55.4 °F 44.6 °F 67% 30.01 in 10.0 mi SSE 8.1 mph - N/A   Clear
4:15 AM 55.4 °F 44.6 °F 67% 30.00 in 10.0 mi SE 8.1 mph - N/A   Clear
4:35 AM 53.6 °F 44.6 °F 72% 30.00 in 10.0 mi SE 9.2 mph - N/A   Partly Cloudy
4:55 AM 55.4 °F 44.6 °F 67% 29.99 in 10.0 mi SE 10.4 mph - N/A   Scattered Clouds
5:15 AM 55.4 °F 44.6 °F 67% 29.99 in 10.0 mi SSE 8.1 mph - N/A   Partly Cloudy
5:35 AM 53.6 °F 44.6 °F 72% 29.99 in 10.0 mi SSE 10.4 mph 19.6 mph N/A   Clear
6:15 AM 55.4 °F 44.6 °F 67% 29.98 in 10.0 mi SSE 13.8 mph 19.6 mph N/A   Clear
6:35 AM 55.4 °F 44.6 °F 67% 29.98 in 10.0 mi SSE 15.0 mph 19.6 mph N/A   Clear
6:55 AM 55.4 °F 44.6 °F 67% 29.97 in 10.0 mi SSE 15.0 mph 23.0 mph N/A   Clear
7:15 AM 55.4 °F 44.6 °F 67% 29.96 in 10.0 mi SSE 16.1 mph 23.0 mph N/A   Clear
7:35 AM 57.2 °F 44.6 °F 63% 29.96 in 10.0 mi SSE 16.1 mph 26.5 mph N/A   Clear
7:55 AM 57.2 °F 46.4 °F 67% 29.95 in 10.0 mi SSE 16.1 mph 25.3 mph N/A   Clear
8:15 AM 57.2 °F 46.4 °F 67% 29.95 in 10.0 mi SSE 17.3 mph 24.2 mph N/A   Clear
8:35 AM 60.8 °F 46.4 °F 59% 29.96 in 10.0 mi SSE 15.0 mph 20.7 mph N/A   Clear
8:55 AM 60.8 °F 46.4 °F 59% 29.96 in 10.0 mi SSE 18.4 mph 28.8 mph N/A   Clear
9:15 AM 60.8 °F 46.4 °F 59% 29.94 in 10.0 mi SSE 18.4 mph 25.3 mph N/A   Clear
9:35 AM 60.8 °F 46.4 °F 59% 29.93 in 10.0 mi SSE 18.4 mph 28.8 mph N/A   Clear
9:55 AM 62.6 °F 46.4 °F 55% 29.92 in 10.0 mi SSE 21.9 mph 31.1 mph N/A   Clear
10:15 AM 62.6 °F 46.4 °F 55% 29.93 in 10.0 mi SSE 19.6 mph 31.1 mph N/A   Clear
10:35 AM 64.4 °F 48.2 °F 56% 29.91 in 10.0 mi SSE 18.4 mph 32.2 mph N/A   Clear
10:55 AM 64.4 °F 46.4 °F 52% 29.90 in 10.0 mi SSE 20.7 mph 33.4 mph N/A   Clear
11:15 AM 64.4 °F 46.4 °F 52% 29.89 in 10.0 mi SSE 19.6 mph 32.2 mph N/A   Clear
11:35 AM 62.6 °F 46.4 °F 55% 29.88 in 10.0 mi SSE 23.0 mph 33.4 mph N/A   Clear
11:55 AM 64.4 °F 46.4 °F 52% 29.87 in 10.0 mi SSE 17.3 mph 35.7 mph N/A   Clear
12:15 PM 62.6 °F 46.4 °F 55% 29.87 in 10.0 mi South 21.9 mph 38.0 mph N/A   Unknown
12:35 PM 62.6 °F 46.4 °F 55% 29.86 in 10.0 mi SSE 21.9 mph 29.9 mph N/A   Unknown
12:55 PM 62.6 °F 46.4 °F 55% 29.83 in 10.0 mi SSE 24.2 mph 33.4 mph N/A   Unknown
1:15 PM 64.4 °F 46.4 °F 52% 29.81 in 10.0 mi SSE 25.3 mph 36.8 mph N/A   Unknown
1:35 PM 66.2 °F 48.2 °F 52% 29.80 in 10.0 mi SSE 24.2 mph 32.2 mph N/A   Unknown
1:55 PM 66.2 °F 48.2 °F 52% 29.82 in 10.0 mi South 21.9 mph 32.2 mph N/A   Unknown
2:15 PM 64.4 °F 48.2 °F 56% 29.81 in 10.0 mi SSE 21.9 mph 32.2 mph N/A   Unknown
2:35 PM 68.0 °F 50.0 °F 52% 29.79 in 10.0 mi SSE 23.0 mph 36.8 mph N/A   Unknown
2:55 PM 66.2 °F 50.0 °F 56% 29.78 in 10.0 mi South 23.0 mph 35.7 mph N/A   Unknown
3:15 PM 66.2 °F 48.2 °F 52% 29.85 in 7.0 mi SSW 18.4 mph 28.8 mph 0.04 in Thunderstorm Thunderstorm
3:35 PM 60.8 °F 53.6 °F 77% 29.85 in 10.0 mi South 19.6 mph 27.6 mph 0.16 in Thunderstorm Thunderstorm
3:55 PM 60.8 °F 53.6 °F 77% 29.84 in 10.0 mi South 19.6 mph 27.6 mph 0.16 in   Unknown
4:15 PM 62.6 °F 53.6 °F 72% 29.83 in 10.0 mi South 18.4 mph 27.6 mph N/A   Unknown
4:35 PM 64.4 °F 55.4 °F 73% 29.83 in 10.0 mi South 17.3 mph 24.2 mph N/A   Unknown
4:55 PM 66.2 °F 53.6 °F 64% 29.82 in 10.0 mi South 19.6 mph 25.3 mph N/A   Unknown
5:15 PM 66.2 °F 53.6 °F 64% 29.81 in 10.0 mi South 20.7 mph 28.8 mph N/A   Unknown
5:35 PM 66.2 °F 53.6 °F 64% 29.80 in 10.0 mi South 20.7 mph 31.1 mph N/A   Unknown
5:55 PM 66.2 °F 53.6 °F 64% 29.79 in 10.0 mi South 20.7 mph 32.2 mph N/A   Unknown
6:15 PM 66.2 °F 53.6 °F 64% 29.78 in 10.0 mi South 17.3 mph 29.9 mph N/A   Unknown
6:35 PM 66.2 °F 53.6 °F 64% 29.79 in 10.0 mi South 23.0 mph 28.8 mph N/A   Unknown
6:55 PM 62.6 °F 51.8 °F 68% 29.80 in 10.0 mi South 17.3 mph 27.6 mph N/A   Unknown
7:15 PM 62.6 °F 51.8 °F 68% 29.80 in 10.0 mi South 15.0 mph 20.7 mph N/A   Unknown
7:35 PM 62.6 °F 53.6 °F 72% 29.83 in 10.0 mi WNW 11.5 mph - N/A   Unknown
7:55 PM 64.4 °F 55.4 °F 73% 29.83 in 10.0 mi SW 3.5 mph - N/A   Unknown
8:15 PM 64.4 °F 55.4 °F 73% 29.82 in 10.0 mi East 3.5 mph - N/A   Unknown
8:35 PM 62.6 °F 55.4 °F 77% 29.82 in 10.0 mi ESE 5.8 mph - N/A   Unknown
8:55 PM 60.8 °F 53.6 °F 77% 29.82 in 10.0 mi ESE 4.6 mph - N/A   Unknown
9:15 PM 59.0 °F 53.6 °F 82% 29.83 in 10.0 mi SE 5.8 mph - N/A   Unknown
9:35 PM 57.2 °F 51.8 °F 82% 29.84 in 10.0 mi Calm Calm - N/A   Unknown
9:55 PM 57.2 °F 51.8 °F 82% 29.84 in 10.0 mi ESE 4.6 mph - N/A   Unknown
10:15 PM 55.4 °F 51.8 °F 88% 29.84 in 10.0 mi SSE 3.5 mph - N/A   Unknown
10:35 PM 55.4 °F 51.8 °F 88% 29.85 in 10.0 mi Calm Calm - N/A   Unknown
10:55 PM 55.4 °F 50.0 °F 82% 29.85 in 10.0 mi ESE 4.6 mph - N/A   Unknown
11:15 PM 53.6 °F 48.2 °F 82% 29.86 in 10.0 mi Calm Calm - N/A   Unknown
11:35 PM 53.6 °F 48.2 °F 82% 29.87 in 10.0 mi Calm Calm - N/A   Unknown
11:55 PM 53.6 °F 48.2 °F 82% 29.87 in 10.0 mi Calm Calm - N/A   Unknown